Location: Bottens
(46.6171°N, 6.6605°E)
Time: 14:52:50
(UTC+00:00)

SeaSat 1 - Pass Details

Date: 20 June 2021
Orbit: 745 x 746 km, 108.0° (Epoch: 01 August)

Event Time Altitude Azimuth Distance (km) Brightness Sun altitude
Rises 02:28:46 0° 30° (NNE) 3,199 7.8 -9.7°
Reaches altitude 10° 02:31:04 10° 34° (NE) 2,271 6.6 -9.4°
Maximum altitude 02:35:58 62° 115° (ESE) 839 2.8 -8.9°
Drops below altitude 10° 02:40:49 10° 197° (SSW) 2,256 4.4 -8.3°
Enters shadow 02:41:20 - 198° (SSW) 2,460 4.6 -8.3°
